Tracking 25656 objects as of 21-May-2022
HD Live streaming from Space Station
objects crossing your sky now

COSMOS 2251 DEB

Track COSMOS 2251 DEB now!
10-day predictions


NORAD ID: 34616
Int'l Code: 1993-036WM
Perigee: 435.5 km
Apogee: 465.5 km
Inclination: 74.0 °
Period: 93.5 minutes
Semi major axis: 6821 km
RCS: 0.0247 m2 (small)
Launch date: June 16, 1993
Source: Commonwealth of Independent States (former USSR) (CIS)
Launch site: PLESETSK MISSILE AND SPACE COMPLEX (PKMTR)

Note: This is SATELLITE DEBRIS
aabbcc
Your satellite tracking list
Your tracking list is empty




NASA's NSSDC Master Catalog

Two Line Element Set (TLE):
1 34616U 93036WM  22141.34117505  .00939459  00000-0  20765-1 0  9997
2 34616  74.0044 111.7042 0022035 200.9970 159.0336 15.40927877704622
Source of the keplerian elements: AFSPC